Theta_e
342 340 340 341 341 341 344 349 350 351 351 351 352 352 352 354 356 354 353 354 354 354 353 353 353 352 352 353 353 353 352 353 349
340 342 341 341 340 341 343 347 350 351 352 352 352 352 353 352 355 357 356 355 358 357 355 355 354 354 354 353 351 352 352 352 347
336 338 341 339 339 341 344 346 349 351 351 351 351 352 353 353 352 352 353 353 354 357 357 356 356 354 352 352 350 349 350 349 346
335 338 339 339 340 343 345 346 348 351 351 351 352 353 353 354 354 354 356 356 355 355 356 355 356 350 346 347 342 335 345 344 343
333 336 337 341 342 344 347 349 351 353 353 353 353 353 354 354 354 354 355 356 356 356 356 357 355 346 338 337 344 338 341 339 344
348 352 351 353 352 348 348 352 355 356 357 356 355 355 356 358 357 358 357 356 356 355 354 353 354 352 350 346 343 335 338 339 341
360 360 361 362 361 359 359 356 356 355 356 357 355 356 355 355 353 352 350 350 349 349 350 350 351 352 346 339 338 341 347 348 345
364 364 365 363 359 356 355 352 350 350 350 350 350 349 347 345 344 343 342 342 343 345 347 348 347 347 339 336 336 338 341 340 341
365 364 361 358 356 354 353 350 348 347 345 344 344 341 339 337 336 335 336 338 339 339 340 342 343 344 344 344 340 339 342 346 345
362 360 357 354 352 349 349 347 345 344 344 342 339 334 332 332 334 336 337 338 338 334 333 336 337 337 338 338 339 339 341 343 345
358 356 354 350 347 346 345 344 342 343 341 338 332 331 331 331 332 334 333 332 331 330 329 330 331 330 331 332 332 336 338 340 339
355 351 349 347 346 345 344 342 341 341 340 334 331 331 330 330 330 330 331 328 328 328 328 330 330 330 329 329 329 328 330 330 330
351 349 348 346 344 343 341 340 340 341 341 337 333 332 331 331 329 329 328 327 327 326 327 328 327 326 325 326 328 328 327 327 326
349 347 346 345 344 342 340 339 340 341 340 340 337 335 334 333 330 327 326 326 326 326 325 324 325 324 322 322 323 324 325 325 324
346 345 344 344 342 341 340 339 340 341 341 338 338 336 333 329 332 330 326 325 323 322 322 322 322 322 321 321 321 321 321 321 321
345 343 342 345 344 341 341 340 341 341 340 335 335 329 325 326 327 328 328 326 326 326 326 325 323 322 322 323 323 324 325 325 325
343 342 343 344 342 340 341 341 341 342 340 328 332 329 327 324 324 325 326 326 327 327 326 320 320 320 319 320 321 321 321 320 321
343 342 343 343 341 340 341 343 344 342 340 332 326 325 325 325 326 326 326 326 325 323 318 314 313 314 316 318 319 320 321 320 319
343 341 342 341 341 340 342 342 341 342 342 336 332 329 328 328 328 328 326 324 320 316 313 313 312 312 313 313 313 312 314 320 319
342 342 341 340 340 341 340 340 340 337 335 338 336 335 335 333 330 328 327 323 317 314 312 312 312 312 312 312 313 312 313 315 313
Wind_Speed
6 10 11 14 14 19 25 26 29 30 34 34 32 30 29 28 23 22 20 16 14 14 15 16 16 20 23 21 21 18 16 16 16
9 13 11 13 11 21 23 25 30 34 35 35 33 33 30 29 27 24 22 19 15 17 18 18 17 15 18 18 20 21 19 19 17
7 9 8 7 8 18 25 27 29 29 32 35 36 33 33 31 29 28 26 24 23 21 20 17 13 12 13 13 14 21 20 19 18
9 8 8 8 7 19 23 24 27 27 29 30 30 30 30 30 28 26 25 24 23 23 20 17 16 12 8 17 14 22 18 21 20
3 4 3 6 8 12 16 17 18 17 18 21 22 22 23 23 22 22 22 23 24 22 20 18 20 19 15 22 28 20 21 28 26
7 7 9 8 9 10 12 12 9 6 3 6 10 10 9 10 10 11 11 12 11 12 11 16 24 25 24 20 23 19 19 23 19
10 9 9 10 10 12 16 18 17 17 12 6 8 10 8 7 6 6 8 5 6 6 6 5 8 13 10 14 5 5 9 16 18
13 12 11 11 11 12 17 18 18 22 22 21 22 23 21 18 14 11 11 11 10 10 9 7 7 9 10 7 10 7 8 15 20
14 12 11 10 10 14 16 15 16 21 23 23 23 24 21 16 12 12 12 12 13 12 10 8 6 7 8 11 11 13 18 13 15
14 12 10 10 9 12 14 16 22 23 24 24 24 21 18 17 16 16 16 15 18 18 17 15 13 11 8 8 11 14 13 12 12
13 12 12 10 13 16 20 23 25 25 26 25 25 24 22 20 19 20 17 19 20 20 21 22 22 23 21 21 19 15 11 7 5
11 12 13 15 19 23 24 24 26 27 26 26 26 24 22 22 22 23 20 21 23 22 23 26 26 23 25 24 23 21 19 16 16
11 17 20 21 24 24 24 23 23 25 23 24 23 22 23 22 22 21 20 19 17 15 18 20 20 22 23 25 25 23 22 21 21
17 22 23 25 25 23 21 21 22 22 20 20 19 18 17 17 19 21 21 22 20 18 18 20 21 24 24 24 25 24 23 21 20
16 20 23 25 24 21 19 20 19 18 18 16 17 16 16 15 15 17 18 19 19 19 20 19 18 20 20 21 21 21 21 20 18
16 22 22 25 25 20 17 17 17 17 16 16 18 19 18 17 16 15 13 13 14 15 13 13 13 14 14 13 13 13 12 12 12
14 20 21 25 24 20 17 15 15 15 17 15 18 17 16 15 16 15 13 12 11 12 12 12 12 12 12 13 14 15 16 16 14
18 20 23 28 25 22 19 16 15 16 17 15 17 16 15 14 13 11 11 11 12 12 12 12 13 14 14 16 16 15 15 16 18
22 22 23 24 25 23 19 18 17 16 16 15 15 15 13 12 11 11 11 13 14 13 12 11 11 11 12 12 13 14 12 9 12
23 24 25 25 26 23 20 19 17 16 13 14 14 11 13 13 12 12 13 12 13 15 10 8 7 6 6 7 9 11 13 11 10
Wind_Direction
202 199 197 207 198 187 196 197 197 200 212 218 218 221 227 230 236 241 246 255 263 265 263 277 288 294 291 283 274 262 259 253 258
200 206 197 205 187 189 191 192 200 205 210 218 221 224 228 232 235 238 242 247 247 249 252 261 270 281 293 293 280 269 256 251 254
214 215 205 181 172 179 195 200 208 208 217 222 225 225 229 234 236 240 245 249 250 254 264 278 286 303 314 321 330 318 274 247 258
194 199 197 193 170 186 198 198 205 212 219 224 228 231 235 238 244 250 254 258 265 267 274 276 269 258 293 300 327 314 292 280 274
69 61 60 66 109 149 175 187 197 209 218 228 236 240 243 249 259 261 263 267 270 276 271 263 254 267 290 255 263 259 250 282 268
98 90 88 85 81 93 103 99 103 108 122 235 251 254 245 247 264 265 262 265 275 291 293 276 266 263 270 281 271 260 244 248 249
87 85 86 86 78 81 80 78 86 84 80 86 127 127 124 111 90 79 79 51 35 8 348 314 299 273 259 266 295 272 253 244 261
104 98 90 90 92 92 87 83 81 90 91 96 105 103 98 94 92 86 79 71 59 51 44 21 331 295 249 295 292 294 315 284 287
115 108 101 93 90 97 96 95 95 98 100 99 100 96 93 93 91 84 77 72 66 64 64 62 50 17 330 321 321 288 291 300 309
130 124 117 108 104 103 102 106 113 109 109 108 100 96 93 93 94 87 77 69 64 62 61 60 52 40 18 4 338 330 325 319 313
134 127 124 120 116 111 115 119 118 119 116 109 103 98 95 91 91 87 75 73 64 61 63 59 57 61 64 61 48 39 32 7 343
136 135 131 130 133 132 129 125 125 120 117 112 107 101 96 93 89 88 89 83 79 75 74 73 72 62 56 52 44 43 46 50 53
127 126 134 136 135 132 128 130 127 118 116 115 112 109 103 94 89 90 89 90 90 80 81 79 71 62 57 55 54 50 53 58 67
139 139 137 140 140 137 134 137 131 121 119 118 124 116 107 102 94 88 92 90 85 82 82 76 70 68 60 58 55 54 52 50 53
144 135 139 145 140 141 142 142 135 127 122 129 130 126 118 112 115 106 99 95 90 83 79 80 75 72 66 60 56 54 52 51 52
147 145 146 151 148 147 151 151 147 138 140 140 138 128 117 116 115 112 111 104 97 87 77 71 66 60 55 47 42 41 41 39 38
144 149 147 153 152 152 157 160 159 151 151 144 146 138 132 128 119 115 110 104 95 89 82 71 65 58 55 55 52 52 52 50 46
150 150 154 159 159 157 156 159 158 161 160 152 145 143 141 138 130 124 120 111 105 98 93 84 75 68 69 67 61 51 50 52 53
153 150 154 158 164 159 159 160 158 163 170 168 160 159 162 157 143 132 126 124 117 112 104 92 84 78 76 73 64 52 44 62 57
150 151 159 163 165 161 162 161 160 160 165 182 184 194 196 190 179 162 152 146 141 135 123 107 96 87 76 69 60 49 44 78 67